Showing default

IRIDIUM 153, 43078

Orbit data source: Space-Track

IRIDIUM 153, 43078 is a payload satellite owned by Iridium (US) in LEO that was launched on Sat, 23 Dec 2017 UTC via an FALCON 9 launch vehicle from the Air Force Western Test Range (AFWTR). Payload-class satellites include a variety of spacecraft equipped with specific instruments for various scientific and technological missions. These include communications satellites like Starlink; space stations such as the ISS; scientific satellites like the Hubble; Earth observation satellites from companies like Planet Labs, Umbra, and HawkEye 360; GPS; miniature CubeSats for education and research; and military/defense satellites.

Loading next visibility...
Identifier
43078, 2017-083J
Orbit
LEO
Last TLE update
4 hours ago
Origin
Manufacturer
OATK SSG Gilbert
Mission
Operational Commercial Communications
Bus & Motor
ELITEBUS, Unknown motor
Mass
860 kg wet, 700 kg dry
Launch date (UTC)
2017-12-23 (8 years ago)
Launch vehicle
FALCON 9
Launch site
Air Force Western Test Range (AFWTR)
Object type
Payload
Rocket body
Debris
Shape & HBR
Trap Box + 2 Pan, 9.4 m
Radar Cross Section
14.423 m², Large (>1 m²)

Expand to show TLE details & history

TLE from 4 hours ago
0 IRIDIUM 153
1 43078U 17083J   25186.61425368  .00000018  00000-0 -76362-6 0  9998
2 43078  86.3950  75.3627 0002629  82.4043 277.7452 14.34217593395601
Epoch: 2025-07-05T14:44Z
TLE epoch observation values (Epoch: 2025-07-05T14:44:31.517Z)
Latitude
0.00001°
Longitude
-69.61839°
Altitude
780.465 km
Speed
7.464 km/s
True Right ascension
05h 01m 27s
True Declination
0° 00' 00"
Sunlit
Object was in daylight at epoch
Visualization orbit readout
Latitude
40.33103°
Longitude
-66.6302°
Altitude
782.126 km
Speed
7.467 km/s
Apparent Right ascension
01h 14m 41s
Apparent Declination
20° 36' 35"
Sunlit
Object is in daylight
Visualization observer readout
Local Sidereal Time
06:12:11
Azimuth
276.846° WNW
Elevation
24.785°
Doppler factor
1
Orbital elements
Apogee altitude
776.513 km
Perigee altitude
772.752 km
Semi-major axis
7,152.769 km
Eccentricity
0.00026
Inclination
86.395°
RAAN
75.3627°
Arg. of periapsis
82.4043°
True anomaly
Unknown
Mean anomaly
277.7452°
Eccentric anomaly
Unknown
Mean motion
3.58783 °/min
Orbital period
100.34 mins
BSTAR
-7.6362e-7
Loading maneuver chart data...
Loading SW <> Apogee altitude chart data...
Loading historical data...
Loading historical data...
Loading historical data...
Loading historical data...
Loading historical data...
Loading historical data...
Loading historical data...

IRIDIUM 153 Visibility forecast

Observer location: undefined°, undefined°

Span
Click to sort rows by Start time (UTC) header in descending order
Start Az.
Max El. time (UTC)
Max El. Az.
Max El.
End time (UTC)
End Az.
4 mins2025-07-05 18:16:40.875Z276.418° WNW2025-07-05 18:16:40.875Z276.418° WNW22.644°2025-07-05 18:20:40.875Z332.408° NNW
8 mins2025-07-06 04:43:40.875Z0.405° NNE2025-07-06 04:47:40.875Z150.855° SSE44.021°2025-07-06 04:51:40.875Z175.732° S
5 mins2025-07-06 16:00:40.875Z111.497° ESE2025-07-06 16:02:40.875Z83.96° E18.339°2025-07-06 16:05:40.875Z43.504° NE
8 mins2025-07-06 17:39:40.875Z210.663° SW2025-07-06 17:43:40.875Z291.584° WNW34.826°2025-07-06 17:47:40.875Z347.46° N
|